Location: Baix
(44.7118°N, 4.7648°E)
Time: 02:42:17
(UTC+00:00)

Cosmos 158 Rocket - Pass Details

Date: 07 August 2020
Orbit: 698 x 794 km, 74.0° (Epoch: 27 September)

Event Time Altitude Azimuth Distance (km) Brightness Sun altitude
Rises 02:48:58 0° 332° (NNW) 3,277 7.5 -16.3°
Reaches altitude 10° 02:51:27 10° 326° (NW) 2,354 6.6 -15.9°
Maximum altitude 02:56:28 42° 257° (WSW) 1,127 4.5 -15.3°
Enters shadow 03:00:20 16° 193° (SSW) 1,957 5.6 -14.8°
